Flag for Congo Dem.Rep. Weather past 2 weeks in Kinshasa, Congo Dem.Rep.

Now
75 °F

Passing clouds.


Feels Like: 75 °F
Forecast: 73 / 81 °F
Wind: 3 mph from Northwest

Location: Brazzaville / Maya-Maya

Current Time: Dec 23, 2014 at 4:03:39 AM

Latest Report: Dec 23, 2014 at 3:00 AM


Visibility: 5 mi

Pressure: 29.89 "Hg

Humidity: 83%

Dew point: 70 °F

Location of KinshasaLocation

Historic Weather in Kinshasa — Graph

°F

Kinshasa temperature yesterday

Maximum temperature yesterday: 88 °F (at 2:00 PM)
Minimum temperature yesterday: 70 °F (at 3:00 AM)
Average temperature yesterday: 78 °F

Past Weeks' High & Low Weather Summary

 TemperatureHumidityPressure
High93 °F (Dec 20, 4:00 PM)100% (Dec 22, 3:00 AM)30.01 "Hg (Dec 22, 3:00 AM)
Low70 °F (Dec 8, 4:00 AM)46% (Dec 8, 3:00 PM)29.74 "Hg (Dec 13, 4:00 PM)
Average79 °F79%29.90 "Hg
* Reported Dec 8 3:00 AM — Dec 23 3:00 AM, Kinshasa, Weather by CustomWeather, © 2014

Note: Actual official high and low records may vary slightly from our data, if they occured in-between our weather recording intervals... More about our weather records

Advertising

Kinshasa weather history for previous 24 hours

 ConditionsComfort  
Time TempWeatherWind HumidityBarometerVisibility
3:00 AM
Dec 23
75 °FPassing clouds.3 mph83%29.89 "Hg5 mi
2:00 AM75 °FPassing clouds.2 mph89%29.92 "Hg5 mi
1:00 AM77 °FPassing clouds.No wind83%29.92 "Hg4 mi
12:00 AM77 °FPassing clouds.5 mph79%29.95 "Hg4 mi
11:00 PM
Dec 22
79 °FClear.5 mph74%29.92 "Hg4 mi
10:00 PM79 °FPassing clouds.5 mph74%29.92 "Hg4 mi
9:00 PM79 °FPassing clouds.3 mph79%29.92 "Hg4 mi
8:00 PM81 °FPassing clouds.2 mph74%29.89 "Hg4 mi
7:00 PM82 °FPassing clouds.3 mph70%29.86 "HgN/A
6:00 PM82 °FPassing clouds.8 mph70%29.83 "HgN/A
5:00 PM84 °FWarm.7 mph66%29.83 "Hg5 mi
4:00 PM86 °FPartly sunny.9 mph62%29.83 "Hg5 mi
3:00 PM86 °FPartly sunny.10 mph62%29.83 "Hg5 mi
2:00 PM88 °FPartly sunny.8 mph59%29.86 "Hg5 mi
1:00 PM86 °FPartly sunny.7 mph66%29.92 "HgN/A
11:00 AM82 °FScattered clouds.5 mph66%29.98 "HgN/A
10:00 AM81 °FPartly sunny.5 mph74%30.01 "HgN/A
9:00 AM77 °FPartly sunny.5 mph83%30.01 "HgN/A
8:00 AM73 °FBroken clouds.No wind89%29.98 "HgN/A
7:00 AM72 °FPartly sunny.3 mph94%29.98 "HgN/A
6:00 AM70 °FPartly cloudy.5 mph94%29.95 "Hg5 mi
5:00 AM70 °FPassing clouds.1 mph100%29.92 "Hg5 mi
4:00 AM70 °FClear.3 mph94%29.92 "Hg5 mi
Weather by CustomWeather, © 2014

See weather overviewHow to use our weather pages